Simultaneous Nadir Overpasses (SNOs) Predictions

Prediction of SNOs between AQUA and GOES-15 Satellite Orbit:

Table of predicted SNOs for the next 14.0 days since TLE Epoch: 2/7/2020
Index Date Time (AQUA) AQUA Lat,Lon GOES-15 Lat,Lon Distance(km) Time Diff (sec)
1 02/07/2020 22:10:16 -0.12,-128.65 0.02,-128.03 69.87 80
2 02/09/2020 21:58:06 0.49,-125.69 -0.00,-127.96 258.79 80
3 02/10/2020 10:19:21 0.65,-130.84 0.00,-127.93 330.87 80
4 02/12/2020 10:07:12 -0.02,-127.89 -0.00,-127.86 4.48 80
5 02/14/2020 09:55:02 -0.64,-124.94 -0.01,-127.78 324.23 80
6 02/14/2020 22:16:26 -0.51,-130.12 0.00,-127.78 266.94 80
7 02/16/2020 22:04:16 0.11,-127.17 -0.00,-127.70 60.13 80
8 02/18/2020 21:52:06 0.74,-124.21 -0.01,-127.61 386.60 80
9 02/19/2020 10:13:22 0.36,-129.37 0.00,-127.57 203.92 80
10 02/21/2020 10:01:12 -0.26,-126.42 -0.00,-127.48 122.09 80




NCC Satellite Simultaneous Nadir Overpasses (SNOs) Prediction Service
